Location: Strawberry
(45.6646°N, 111.9596°W)
Time: 00:39:58
(UTC+00:00)

Vanguard 1 Rocket - Pass Details

Date: 30 September 2022
Orbit: 650 x 4225 km, 34.3° (Epoch: 05 December)

Event Time Altitude Azimuth Distance (km) Brightness Sun altitude
Rises 01:20:04 0° 204° (SSW) 8,339 12.7 -2.3°
Reaches altitude 10° 01:28:08 10° 192° (SSW) 6,975 12.1 -3.7°
Maximum altitude 01:42:51 23° 150° (SSE) 4,812 10.8 -6.3°
Drops below altitude 10° 01:53:00 10° 105° (ESE) 4,743 10.4 -8.1°
Enters shadow 01:53:37 - 103° (ESE) 4,802 10.4 -8.2°
